Location: ??? ???
(33.4974°N, 35.4618°E)
Time: 12:10:06
(UTC+00:00)

CZ-4 R/B - Pass Details

Date: 29 October 2020
Orbit: 532 x 598 km, 97.7° (Epoch: 26 November)

Event Time Altitude Azimuth Distance (km) Brightness Sun altitude
Rises 15:44:13 0° 145° (SE) 2,707 4.6 -12.1°
Reaches altitude 10° 15:46:31 10° 135° (SE) 1,807 3.6 -12.6°
Maximum altitude 15:49:57 30° 73° (ENE) 977 2.0 -13.3°
Drops below altitude 10° 15:53:22 10° 11° (N) 1,795 3.8 -14.0°
Sets 15:55:38 0° 1° (N) 2,685 4.8 -14.5°
